World > North America > United States > Texas

Springhill, Texas Regional Weather

Lat: 31.88N, Lon: 96.71W
Wx Zone: TXZ146Web Search
Springhill Weather Warning NWS WEATHER ALERT FOR THE SPRINGHILL, TX AREA - Issued: 540 AM CDT Wed Apr 14 2021 Springhill Weather Warning  

Helpful Tip: Abbreviated, 7 Day, 14 Day Forecasts. There is a weather forecast for every taste.

Feedback


°F Click to change Springhill hourly weather to Imperial units.Click to change Springhill hourly weather to Metric units. °C
Springhill Weather Map
UTC Time: 4/14/2021, 11:57
Your Time:

Springhill, TX Regional Weather

Expires:202104141200;;535920
ASUS44 KFWD 141115
RWRTX 
NORTH TEXAS HOURLY WEATHER ROUNDUP
NATIONAL WEATHER SERVICE FORT WORTH TX
600 AM CDT WED APR 14 2021

NOTE: "FAIR" INDICATES FEW OR NO CLOUDS BELOW 12,000 FEET WITH NO
SIGNIFICANT WEATHER AND/OR OBSTRUCTIONS TO VISIBILITY.


TXZ143>147-156>162-174-175-141200-
CENTRAL TEXAS
  
CITY           SKY/WX    TMP DP  RH WIND       PRES   REMARKS
WACO           CLOUDY    65  55  70 N10       29.97R                  
WACO-MCGREGOR  CLOUDY    66  56  70 N8        29.98R                  
HILLSBORO      FAIR      63  51  67 N12       29.98R                  
CORSICANA      LGT RAIN  69  66  90 S5        29.97R                  
MEXIA          CLOUDY    68  67  94 SW6       29.96R                  
HEARNE         CLOUDY    69  67  93 CALM      29.95S                  
CAMERON        CLOUDY    69  67  94 S3        29.94R FOG              
TEMPLE         CLOUDY    67  61  81 N5        29.97R                  
KILLEEN        CLOUDY    67  57  71 N7        29.96R                  
KILLEEN-SKYLRK CLOUDY   N/A N/A N/A N6        29.97R                  
FORT HOOD      CLOUDY    67  56  67 N8        29.97R                  
GATESVILLE     FAIR      64  54  68 N5        30.00R                  
HAMILTON       CLOUDY    63  51  65 N8        30.02R                  
LAMPASAS       MOCLDY    65  53  66 N6        29.98R                  
$$


SKY/WX - Weather  TMP - Temperature  DP - Dew Point  RH - Relative Humidity
WIND - Wind Direction/Speed PRES - Barometric Pressure VSB - Visibility
WCI - Wind Chill Index E13G22 Wind - East Wind 13 mph/Gusts of 22 mph